Wind_Speed
14 14 13 13 13 12 12 11 11 10 10 10 10 10 10 9 9 9 8 8 8 8 8 8 8 7 8 8 8 7 7 7 7 7 7 6 6 6 6 6 6 6 6
13 13 12 12 12 11 10 10 10 9 9 9 9 9 8 8 8 8 7 7 7 7 7 7 7 7 7 7 7 7 6 7 7 7 6 6 6 6 6 6 6 6 6
12 12 11 10 10 10 10 9 9 8 8 8 8 8 8 8 8 7 7 6 7 6 6 6 6 7 6 6 6 6 6 6 6 6 6 6 6 6 6 6 6 6 6
10 10 10 9 9 9 8 8 8 7 7 7 8 8 7 7 7 7 7 6 6 6 6 6 6 6 6 6 6 6 6 6 6 6 6 6 6 6 6 5 6 5 6
9 9 9 9 9 9 8 7 7 7 6 6 7 7 7 7 7 6 6 6 6 6 6 6 6 6 6 5 5 5 5 6 5 6 6 6 6 6 6 6 5 5 5
8 8 8 8 8 8 7 6 6 6 6 6 6 6 6 6 6 6 6 6 6 6 6 6 6 6 5 5 5 5 5 5 6 6 6 6 6 6 6 6 6 5 5
8 8 8 8 7 7 6 6 6 5 5 5 6 6 5 5 6 6 6 6 6 6 6 6 5 5 5 5 5 5 5 5 5 5 5 6 6 6 5 5 6 6 6
7 7 7 7 7 6 5 5 6 6 6 6 6 5 6 6 6 5 5 6 5 5 6 5 5 5 4 4 5 5 4 5 5 4 5 5 5 5 5 6 6 6 6
7 7 6 7 6 6 5 5 5 6 5 5 5 5 5 6 5 5 5 6 6 5 5 5 5 5 5 5 4 4 4 4 3 4 3 4 4 4 4 5 5 5 5
6 5 5 6 5 5 5 5 4 4 4 4 5 5 5 6 6 5 5 5 5 5 5 5 5 4 4 4 3 3 3 3 2 2 2 3 4 4 4 4 5 5 5
5 4 4 5 4 5 5 5 4 4 4 4 4 5 5 5 5 5 5 4 4 4 5 4 4 4 3 3 3 2 3 2 2 2 2 3 3 3 3 3 4 4 4
4 4 3 4 4 4 4 4 4 3 3 4 4 4 4 4 4 4 4 4 4 5 5 5 4 4 3 3 2 3 3 2 2 2 2 2 2 2 2 2 2 2 3
3 3 3 3 3 3 3 3 3 3 3 3 3 4 3 3 4 4 4 4 4 4 5 5 4 4 3 2 2 2 2 2 2 1 1 0 1 1 0 0 1 1 2
3 3 3 3 3 4 3 3 2 2 3 3 3 4 3 3 3 3 4 4 4 4 4 4 4 4 3 3 2 2 2 1 1 0 0 0 1 1 1 1 1 1 2
3 3 3 2 3 4 3 3 2 3 2 2 3 3 3 3 3 3 3 3 4 4 4 4 4 4 4 3 3 2 2 2 2 1 1 1 2 2 2 2 2 2 2
3 3 3 4 4 4 4 3 3 3 3 3 2 3 3 3 3 3 3 4 4 4 4 4 4 4 4 4 3 3 2 3 3 2 2 2 2 2 2 2 2 3 3
4 3 3 4 4 4 4 3 3 3 3 3 3 3 3 3 3 4 4 4 4 4 4 4 4 4 4 3 3 4 4 3 3 4 3 3 3 2 2 3 3 3 3
4 4 3 2 3 4 4 3 3 3 3 4 4 4 4 4 4 5 5 5 4 4 4 4 4 5 5 4 4 4 5 4 4 4 4 3 3 2 3 3 3 3 3
4 4 3 3 3 3 4 4 4 4 4 5 5 5 5 5 5 5 5 5 5 5 4 5 5 5 4 4 5 5 5 4 4 5 4 4 4 4 3 3 3 4 4
3 4 3 3 3 3 4 4 4 5 5 5 6 6 6 5 6 5 5 5 5 5 5 5 5 5 4 5 5 5 5 5 5 5 5 5 5 5 5 5 4 4 4
2 3 4 4 4 4 5 5 5 5 5 5 6 5 5 5 5 4 5 5 5 5 5 6 6 5 5 5 5 5 5 5 5 6 5 5 5 5 6 6 5 5 6
3 4 4 5 5 5 5 6 5 5 5 6 6 6 5 5 5 5 5 6 6 6 6 6 6 5 5 5 5 5 5 5 5 5 5 5 6 5 6 6 6 6 6
4 5 5 6 6 6 7 7 6 7 7 7 7 6 6 6 6 6 6 6 7 7 6 5 5 5 5 5 5 5 5 5 6 6 6 6 6 6 6 7 7 7 7
5 6 6 6 6 7 7 7 7 7 7 8 8 8 7 7 7 8 8 7 8 8 6 6 5 5 5 5 5 5 6 6 6 7 7 7 7 7 7 8 8 8 8
5 6 6 6 6 7 7 7 7 8 9 8 9 9 8 8 8 8 8 8 8 7 6 6 5 6 6 6 6 7 7 7 7 8 8 8 8 8 8 9 9 9 10
7 7 6 6 6 7 8 8 8 9 9 9 9 10 9 8 8 8 9 8 8 7 7 7 7 7 7 7 7 7 8 8 8 8 9 9 9 9 9 10 10 10 11
Wind_Direction
97 98 98 96 95 94 93 91 90 88 89 88 83 81 79 79 81 82 83 82 81 81 84 84 83 80 82 82 82 83 82 80 77 75 72 71 72 71 67 66 64 67 71
99 98 99 97 97 95 92 90 89 86 84 85 80 74 75 73 72 71 73 74 75 77 78 78 78 79 82 80 81 81 82 81 80 76 72 73 72 69 71 70 68 68 68
100 98 98 97 96 96 93 90 87 84 81 81 79 73 71 69 67 67 72 77 78 80 78 77 76 79 78 75 77 79 79 78 78 73 71 70 70 75 79 76 72 70 75
99 99 97 95 96 96 93 89 83 76 72 76 75 70 66 66 65 63 65 70 75 76 72 75 75 78 74 69 72 76 75 72 72 68 70 64 70 78 82 82 78 78 81
98 100 99 98 98 96 91 86 79 72 70 70 68 65 65 68 69 62 57 60 64 65 66 69 70 66 63 66 69 72 70 68 69 66 69 71 72 77 84 85 82 78 78
97 97 96 96 95 93 88 82 74 71 70 66 63 59 60 64 62 63 64 64 61 60 57 54 55 55 58 61 63 67 66 66 68 65 67 72 73 79 83 85 82 76 78
95 96 94 91 89 88 85 78 73 76 74 68 61 57 55 55 53 54 59 64 63 58 50 51 52 58 62 63 60 62 68 69 68 62 65 70 76 81 82 85 80 78 75
97 95 91 89 87 85 79 73 73 78 76 70 62 57 55 55 50 50 51 51 55 52 51 47 47 49 55 58 57 60 63 62 64 69 69 72 77 84 88 84 77 75 72
93 94 89 88 85 82 78 76 77 74 74 70 65 57 54 54 48 45 46 46 46 49 45 42 42 44 47 48 47 48 53 57 65 75 70 72 75 83 88 82 79 74 71
88 91 89 86 81 74 74 76 75 74 72 70 64 52 48 47 43 41 45 42 42 42 39 36 34 36 35 37 37 45 51 50 71 76 69 73 77 83 87 87 80 75 71
85 82 86 80 76 69 68 67 67 68 66 64 58 49 43 38 38 36 33 31 41 39 32 30 29 28 28 30 27 31 43 62 78 79 84 86 89 89 90 87 77 72 64
76 78 84 82 72 64 65 61 55 52 51 48 52 43 33 36 34 29 26 29 32 29 24 24 23 15 15 14 15 26 39 46 59 79 90 98 106 98 90 85 70 59 50
59 68 67 65 58 58 59 53 49 41 41 38 34 24 23 29 27 18 16 17 19 17 15 18 14 9 8 1 355 14 23 21 54 63 57 113 137 124 84 59 41 22 19
56 66 72 50 46 51 46 39 30 21 30 24 15 17 13 18 13 5 357 357 359 359 360 1 1 2 2 353 348 353 352 348 11 2 260 275 244 261 278 271 322 329 336
74 76 83 70 50 46 36 29 19 7 359 355 358 6 4 4 356 350 353 350 343 346 345 342 340 340 335 327 319 321 331 323 317 313 286 260 263 281 277 265 275 292 284
58 61 67 63 52 47 35 26 8 2 354 340 330 339 348 349 347 339 337 334 329 330 328 327 325 325 322 313 309 302 293 295 300 299 283 266 274 276 279 280 285 284 271
48 41 56 52 44 41 31 17 5 348 341 327 328 333 338 340 335 333 329 321 313 313 315 322 318 318 313 303 302 293 285 282 290 292 275 270 273 285 279 276 275 278 277
42 31 25 27 19 17 9 357 351 348 342 333 325 320 314 314 321 324 327 319 307 308 306 308 307 308 305 295 293 290 286 277 281 280 266 264 266 274 278 269 269 276 282
34 26 8 357 357 0 358 350 342 333 330 328 323 315 308 309 320 323 322 324 316 305 296 297 296 300 303 296 293 289 283 279 277 274 262 263 264 263 265 264 271 279 281
23 15 359 338 334 337 342 342 335 327 317 321 324 323 316 315 320 322 325 326 320 309 300 298 292 287 292 293 290 289 284 276 269 270 268 266 263 262 265 266 269 273 275
347 345 336 326 324 323 326 329 321 318 315 315 321 328 326 320 321 320 322 322 317 311 302 300 291 289 289 285 282 284 284 278 269 270 269 264 261 264 265 267 266 268 270
318 325 325 317 313 312 317 320 312 308 312 317 320 320 315 315 314 309 315 316 315 313 305 297 293 292 292 289 283 281 279 271 269 265 271 269 264 263 270 272 267 268 268
318 316 316 313 310 309 311 312 304 302 304 305 305 309 308 306 298 300 303 311 314 309 304 298 287 280 279 283 285 277 273 270 267 270 267 273 269 267 270 271 267 266 267
309 308 312 310 308 309 315 321 314 309 307 305 297 295 297 294 294 294 300 306 312 308 299 291 285 273 278 276 273 268 272 271 273 271 267 269 270 267 265 267 267 267 269
308 312 311 316 313 317 319 322 322 312 308 304 298 290 288 289 289 292 296 299 301 305 298 286 284 272 273 273 271 272 273 272 271 267 266 268 270 268 266 263 265 268 269
304 305 308 312 307 309 310 313 319 318 311 302 295 294 288 287 289 289 294 296 298 300 296 287 279 277 277 274 272 277 278 276 272 269 265 267 270 270 272 268 267 268 270
Height
5897 5897 5898 5898 5898 5899 5899 5899 5899 5899 5899 5899 5899 5898 5898 5898 5897 5897 5897 5896 5896 5895 5895 5894 5894 5893 5893 5893 5892 5892 5892 5891 5891 5891 5890 5890 5889 5889 5888 5887 5887 5886 5886
5899 5899 5900 5900 5900 5900 5901 5901 5901 5901 5901 5901 5900 5900 5900 5899 5899 5898 5898 5897 5897 5897 5896 5896 5895 5895 5894 5894 5893 5893 5893 5892 5892 5891 5891 5891 5890 5889 5889 5888 5888 5887 5887
5901 5901 5901 5901 5902 5902 5903 5903 5903 5903 5903 5902 5902 5902 5901 5901 5900 5900 5899 5899 5898 5898 5897 5897 5896 5896 5895 5895 5894 5894 5894 5893 5893 5892 5892 5891 5891 5890 5890 5889 5889 5888 5888
5902 5903 5903 5903 5903 5904 5904 5904 5905 5904 5904 5904 5903 5903 5903 5902 5901 5901 5900 5900 5899 5899 5898 5898 5897 5897 5896 5896 5896 5895 5895 5894 5894 5893 5893 5892 5892 5891 5891 5890 5890 5890 5889
5904 5904 5905 5905 5905 5905 5906 5906 5906 5906 5906 5905 5905 5905 5904 5904 5903 5902 5901 5901 5900 5900 5899 5899 5898 5898 5897 5897 5896 5896 5895 5895 5894 5894 5893 5893 5893 5892 5892 5891 5891 5891 5890
5905 5906 5906 5906 5906 5907 5907 5907 5907 5907 5907 5906 5906 5906 5905 5905 5904 5903 5902 5902 5901 5901 5900 5900 5899 5899 5898 5898 5897 5897 5896 5896 5895 5895 5894 5894 5893 5893 5893 5892 5892 5892 5891
5907 5907 5907 5908 5908 5908 5908 5908 5908 5908 5908 5908 5907 5907 5907 5906 5905 5904 5903 5903 5902 5902 5901 5901 5900 5900 5899 5899 5898 5898 5897 5897 5896 5896 5895 5895 5894 5894 5893 5893 5893 5892 5892
5908 5909 5909 5909 5909 5909 5909 5910 5909 5909 5909 5909 5909 5908 5908 5907 5906 5906 5905 5904 5904 5903 5902 5902 5901 5901 5900 5900 5899 5898 5898 5897 5897 5896 5896 5895 5895 5895 5894 5894 5894 5893 5893
5909 5910 5910 5910 5910 5910 5910 5910 5910 5910 5910 5909 5909 5909 5909 5908 5908 5907 5906 5905 5905 5904 5903 5903 5902 5902 5901 5901 5900 5899 5898 5898 5897 5897 5897 5896 5896 5895 5895 5895 5895 5894 5894
5910 5911 5911 5912 5911 5911 5911 5911 5910 5910 5910 5910 5910 5910 5910 5909 5908 5908 5907 5906 5905 5905 5904 5903 5903 5902 5902 5901 5900 5899 5898 5898 5898 5898 5897 5897 5896 5896 5896 5896 5896 5895 5895
5912 5912 5912 5912 5912 5912 5912 5912 5911 5911 5911 5911 5911 5911 5910 5910 5909 5908 5907 5907 5906 5905 5904 5904 5903 5903 5902 5901 5900 5899 5899 5898 5898 5898 5898 5897 5897 5897 5897 5897 5896 5896 5895
5913 5913 5913 5913 5913 5913 5913 5912 5912 5912 5912 5912 5912 5911 5911 5910 5909 5908 5908 5907 5906 5906 5905 5904 5904 5903 5902 5901 5901 5900 5899 5899 5898 5898 5898 5898 5897 5897 5897 5897 5897 5896 5896
5913 5913 5913 5913 5913 5913 5913 5913 5913 5913 5912 5912 5912 5912 5911 5910 5909 5909 5908 5907 5907 5906 5905 5905 5904 5903 5902 5901 5901 5900 5900 5899 5898 5898 5898 5898 5898 5897 5897 5897 5897 5896 5896
5914 5914 5914 5914 5913 5913 5913 5913 5913 5913 5913 5913 5912 5912 5911 5910 5910 5909 5908 5908 5907 5906 5905 5905 5904 5903 5902 5902 5901 5900 5899 5899 5898 5898 5898 5898 5898 5897 5897 5897 5896 5896 5896
5914 5914 5915 5914 5914 5914 5914 5913 5913 5913 5913 5913 5912 5912 5911 5911 5910 5909 5909 5908 5907 5906 5905 5904 5904 5903 5902 5902 5901 5900 5899 5899 5898 5898 5898 5898 5897 5897 5897 5896 5896 5896 5895
5914 5914 5915 5915 5915 5914 5914 5913 5913 5913 5913 5912 5912 5912 5911 5910 5910 5909 5908 5907 5906 5906 5905 5904 5903 5903 5902 5901 5900 5900 5899 5899 5898 5898 5898 5897 5897 5896 5896 5896 5895 5895 5895
5915 5914 5914 5914 5914 5914 5914 5914 5913 5913 5913 5912 5911 5911 5910 5910 5909 5909 5908 5907 5906 5905 5904 5903 5903 5902 5901 5900 5900 5899 5899 5898 5898 5898 5897 5897 5896 5896 5895 5895 5895 5895 5894
5915 5915 5914 5914 5914 5914 5914 5913 5913 5912 5912 5911 5910 5910 5909 5909 5908 5908 5907 5906 5905 5904 5903 5902 5901 5901 5900 5899 5899 5899 5898 5897 5897 5897 5896 5896 5896 5895 5895 5895 5894 5894 5894
5915 5915 5914 5914 5914 5914 5913 5913 5912 5912 5911 5910 5909 5909 5908 5907 5907 5906 5905 5904 5903 5903 5902 5901 5900 5899 5899 5899 5898 5898 5897 5896 5896 5896 5895 5895 5895 5894 5894 5894 5894 5893 5893
5915 5914 5914 5914 5913 5913 5912 5912 5911 5911 5910 5909 5909 5908 5907 5906 5905 5905 5904 5903 5902 5902 5901 5900 5899 5898 5898 5898 5897 5897 5896 5896 5895 5894 5894 5894 5894 5894 5893 5893 5893 5892 5892
5914 5914 5913 5913 5912 5912 5911 5911 5910 5909 5909 5908 5907 5906 5906 5905 5904 5904 5903 5902 5901 5900 5900 5899 5898 5898 5897 5897 5896 5896 5895 5895 5894 5894 5893 5893 5893 5892 5892 5892 5891 5891 5890
5914 5913 5912 5912 5911 5911 5910 5910 5909 5908 5907 5907 5906 5905 5904 5904 5903 5902 5902 5901 5900 5899 5898 5898 5897 5896 5896 5896 5895 5894 5894 5894 5893 5893 5892 5892 5892 5891 5891 5890 5890 5889 5889
5912 5912 5911 5911 5910 5910 5909 5908 5907 5906 5906 5906 5905 5904 5903 5902 5902 5901 5900 5899 5898 5897 5897 5896 5896 5895 5895 5894 5894 5894 5893 5893 5892 5892 5892 5891 5890 5890 5889 5889 5888 5888 5887
5911 5910 5910 5909 5909 5908 5907 5906 5906 5905 5904 5904 5903 5902 5901 5901 5900 5899 5898 5897 5897 5895 5895 5894 5894 5894 5893 5893 5892 5892 5892 5891 5891 5890 5890 5889 5889 5888 5888 5887 5887 5886 5886
5909 5908 5907 5907 5907 5906 5906 5905 5904 5903 5902 5902 5901 5900 5899 5899 5898 5897 5896 5896 5895 5894 5893 5892 5892 5892 5891 5891 5890 5890 5889 5889 5888 5888 5888 5887 5887 5886 5886 5885 5885 5884 5883
5908 5907 5906 5905 5906 5905 5904 5903 5902 5902 5900 5899 5898 5897 5896 5896 5896 5895 5894 5894 5893 5892 5891 5890 5890 5890 5889 5889 5888 5888 5887 5886 5886 5885 5885 5885 5884 5884 5883 5883 5882 5881 5881